Powrót do katalogu

STARLINK-36954

AktywnyŁącznośćVLEO
NORAD 68057·PAYLOAD·🇺🇸 United States

Wystrzelony Mar 2, 2026 z Vandenberg Space Force Base

Loading…

Następne Przeloty (najbliższe 24 godziny)

TLE

ŚwieżeSource: CelesTrak SupGP

Epoka: Sep 14, 2026, 21:31 UTC

1 68057C 26041T   26257.89701389  .00043144  00000+0  12748-2 0  2572
2 68057  53.1570 245.9531 0001297  96.6356  68.2832 15.34367731    12

Śledź STARLINK-36954 w czasie rzeczywistym z AllMySat

Download on the App Store